Retour au catalogue

COSMOS 2491 DEB

LostPO
NORAD 44996·DEBRIS·🇷🇺 Russia

Lancé Dec 25, 2013 depuis Plesetsk Cosmodrome

Loading…

Prochains Passages (prochaines 24 heures)

TLE

PériméSource: Space-Track

Époque: Aug 10, 2026, 01:02 UTC

1 44996U 13076R   26222.04324040  .00000106  00000-0  68900-3 0  9993
2 44996  82.4831 135.0940 0016640 338.9114  21.1278 12.43363298299055

Suivez COSMOS 2491 DEB en temps réel avec AllMySat

Download on the App Store